Content
SEND FEEDBACK

Daily
Averages
Monthly
Summary
United States of America

JUNEAU - TONGASS NATIONAL FOREST, ALASKA


Home > North America > United States > Alaska
Elevation: 371 feet     Latitude: 58 19N     Longitude: 134 06W

WEATHER
 
SELECT A DAY
Number of Records: 431,236;   Date Range: 12/9/96 - 7/23/14
 
SHARE

PRINT THIS DATA

[ ← Previous Day ]
WEATHER ALMANAC - FEBRUARY 13, 2013
[ Next Day → ]
[ °C ]   °F
Weather ElementAverageHighLow
Temperature27.6 °F33.8 °F (1:55 pm)19.4 °F (3:35 am)
Dewpoint24.1 °F28.4 °F (9:35 pm)19.4 °F (12:35 am)
Humidity87.3 %100 % (1:15 am)69 % (11:35 am)
Barometer29.73 in29.84 in (12:35 am)29.67 in (11:35 pm)
Wind Speed6.2 mph11.5 mph (1:15 pm)
Weather ElementAverage
Visibility7.2 mi
Wind DirectionSSW (192.8 °)

Weather ElementTotal
Precipitation---
Heating Degree Days38.4 (Base 65)
Averaged from 68 records on February 13, 2013
WEATHER CONDITIONS BREAKOUT
WIND DIRECTION BREAKOUT
WEATHER BY HOUR - FEBRUARY 13, 2013
[ °C ]   °F
Local TimeTemperatureDewpointHumidityBarometerVisibilityWind DirectionWind SpeedGust SpeedPrecipitationEventsConditions
12:35 AM21.2 °F19.4 °F93 %29.84 in7.0 miSSW (200°)6.9 mphClear
12:55 AM21.2 °F19.4 °F93 %29.84 in7.0 miSouth (190°)5.8 mphClear
1:15 AM21.2 °F21.2 °F100 %29.83 in7.0 miSouth (190°)5.8 mphClear
1:35 AM21.2 °F21.2 °F100 %29.82 in7.0 miSouth (170°)4.6 mphClear
2:15 AM23.0 °F21.2 °F93 %29.82 in7.0 miSouth (180°)5.8 mphClear
2:35 AM21.2 °F19.4 °F93 %29.81 in5.0 miSouth (190°)3.5 mphClear
2:55 AM21.2 °F21.2 °F100 %29.80 in5.0 miSouth (180°)5.8 mphClear
3:15 AM21.2 °F21.2 °F100 %29.78 in5.0 miSouth (180°)5.8 mphClear
3:35 AM19.4 °F19.4 °F100 %29.79 in4.0 miSSW (200°)4.6 mphClear
3:55 AM21.2 °F19.4 °F93 %29.78 in3.0 miSouth (190°)3.5 mphClear
4:15 AM21.2 °F21.2 °F100 %29.77 in4.0 miSouth (180°)4.6 mphClear
4:35 AM21.2 °F21.2 °F100 %29.77 in4.0 miSouth (170°)4.6 mphClear
4:55 AM21.2 °F21.2 °F100 %29.77 in3.0 miSouth (180°)3.5 mphClear
5:15 AM19.4 °F19.4 °F100 %29.76 in2.0 miSSE (160°)3.5 mphClear
5:35 AM19.4 °F19.4 °F100 %29.76 in1.8 miSSE (150°)3.5 mphMist
5:55 AM19.4 °F19.4 °F100 %29.75 in1.8 miSouth (170°)4.6 mphMist
6:15 AM19.4 °F19.4 °F100 %29.75 in2.0 miSouth (170°)4.6 mphClear
6:35 AM21.2 °F21.2 °F100 %29.74 in3.0 miSouth (180°)4.6 mphClear
6:55 AM19.4 °F19.4 °F100 %29.74 in2.0 miSouth (190°)3.5 mphClear
7:15 AM19.4 °F19.4 °F100 %29.75 in1.5 miSW (230°)3.5 mphMist
7:35 AM19.4 °F19.4 °F100 %29.75 in1.8 miSSW (210°)3.5 mphMist
7:55 AM21.2 °F19.4 °F93 %29.75 in1.8 miCalmMist
8:15 AM21.2 °F21.2 °F100 %29.74 in2.0 miSSW (210°)3.5 mphClear
8:35 AM21.2 °F21.2 °F100 %29.74 in2.5 miSSW (210°)3.5 mphMostly Cloudy
8:55 AM23.0 °F23.0 °F100 %29.73 in3.0 miSW (230°)3.5 mphMostly Cloudy
9:15 AM23.0 °F23.0 °F100 %29.73 in3.0 miSSW (200°)3.5 mphScattered Clouds
9:35 AM24.8 °F24.8 °F100 %29.73 in4.0 miSW (220°)3.5 mphClear
9:55 AM26.6 °F26.6 °F100 %29.73 in4.0 miSouth (190°)4.6 mphScattered Clouds
10:15 AM28.4 °F26.6 °F93 %29.72 in5.0 miSouth (190°)4.6 mphMostly Cloudy
10:35 AM28.4 °F26.6 °F93 %29.73 in5.0 miSSW (200°)4.6 mphOvercast
10:55 AM30.2 °F24.8 °F80 %29.73 in7.0 miSSW (200°)5.8 mphOvercast
11:15 AM30.2 °F23.0 °F75 %29.73 in10.0 miSSW (210°)5.8 mphOvercast
11:35 AM32.0 °F23.0 °F69 %29.72 in10.0 miSouth (190°)5.8 mphOvercast
11:55 AM32.0 °F23.0 °F69 %29.71 in10.0 miSSW (200°)8.1 mphOvercast
12:15 PM32.0 °F23.0 °F69 %29.71 in10.0 miSSW (200°)8.1 mphOvercast
12:35 PM32.0 °F26.6 °F80 %29.71 in10.0 miSouth (190°)9.2 mphOvercast
12:55 PM32.0 °F24.8 °F75 %29.70 in10.0 miSSW (200°)10.4 mphOvercast
1:15 PM32.0 °F24.8 °F75 %29.70 in10.0 miSouth (180°)11.5 mphOvercast
1:35 PM32.0 °F24.8 °F75 %29.70 in10.0 miSSW (200°)10.4 mphOvercast
1:55 PM33.8 °F26.6 °F75 %29.69 in10.0 miSSW (200°)9.2 mphOvercast
2:15 PM33.8 °F26.6 °F75 %29.69 in10.0 miSSW (210°)9.2 mphOvercast
2:35 PM33.8 °F24.8 °F70 %29.69 in10.0 miSW (220°)9.2 mphOvercast
2:55 PM33.8 °F26.6 °F75 %29.70 in10.0 miSW (220°)10.4 mphOvercast
3:55 PM33.8 °F26.6 °F75 %29.70 in10.0 miSW (220°)10.4 mph
4:15 PM33.8 °F26.6 °F75 %29.70 in10.0 miSSW (210°)8.1 mphScattered Clouds
4:35 PM33.8 °F26.6 °F75 %29.69 in10.0 miSW (220°)9.2 mphOvercast
4:55 PM33.8 °F26.6 °F75 %29.70 in10.0 miSW (220°)8.1 mphOvercast
5:15 PM33.8 °F26.6 °F75 %29.70 in10.0 miSW (220°)8.1 mphOvercast
5:35 PM32.0 °F26.6 °F80 %29.70 in10.0 miSSW (210°)5.8 mphScattered Clouds
5:55 PM32.0 °F26.6 °F80 %29.70 in10.0 miSSW (210°)6.9 mphClear
6:15 PM32.0 °F26.6 °F80 %29.70 in10.0 miSSW (200°)5.8 mphScattered Clouds
6:35 PM32.0 °F26.6 °F80 %29.70 in10.0 miSSW (200°)5.8 mphOvercast
6:55 PM32.0 °F26.6 °F80 %29.70 in10.0 miSSW (200°)6.9 mphOvercast
7:15 PM32.0 °F26.6 °F80 %29.71 in10.0 miSSW (200°)8.1 mphOvercast
7:35 PM32.0 °F26.6 °F80 %29.71 in10.0 miSSW (200°)5.8 mphOvercast
7:55 PM32.0 °F26.6 °F80 %29.70 in10.0 miSSW (200°)5.8 mphMostly Cloudy
8:15 PM32.0 °F26.6 °F80 %29.70 in10.0 miSSW (200°)6.9 mphOvercast
8:35 PM32.0 °F26.6 °F80 %29.70 in10.0 miSouth (190°)4.6 mphOvercast
8:55 PM32.0 °F26.6 °F80 %29.70 in10.0 miSSW (200°)5.8 mphOvercast
9:15 PM32.0 °F26.6 °F80 %29.70 in10.0 miSSW (200°)9.2 mphOvercast
9:35 PM32.0 °F28.4 °F87 %29.70 in10.0 miSSW (210°)9.2 mphOvercast
9:55 PM32.0 °F28.4 °F87 %29.70 in10.0 miSSW (200°)8.1 mphOvercast
10:15 PM32.0 °F28.4 °F87 %29.69 in10.0 miSSW (200°)8.1 mphOvercast
10:35 PM32.0 °F28.4 °F87 %29.69 in10.0 miSouth (190°)6.9 mphOvercast
10:55 PM32.0 °F28.4 °F87 %29.68 in10.0 miSouth (180°)6.9 mphOvercast
11:15 PM32.0 °F28.4 °F87 %29.68 in10.0 miSouth (170°)8.1 mphOvercast
11:35 PM32.0 °F28.4 °F87 %29.67 in10.0 miSouth (170°)6.9 mphOvercast
11:55 PM32.0 °F28.4 °F87 %29.67 in10.0 miSSE (160°)5.8 mphOvercast
Hourly data recorded from KUNU, located miles away from Juneau - Tongass National Forest, Alaska







STORIES FROM OUR PARTNERS